Theta_e
286 286 285 285 284 284 283 283 283 283 282 281 280 280 280 280 279 279 279 279 278 279 280 280 280 280 279 280 280 279 279 279 276 279 282 282 282 283 285 285 285 285 287
286 286 285 285 284 283 283 283 283 282 282 281 280 279 279 279 279 278 277 278 277 278 278 279 278 278 278 279 278 278 279 279 277 276 279 281 281 282 282 282 283 284 285
285 285 285 284 284 283 283 283 283 282 281 280 279 278 278 278 277 277 277 277 277 278 278 278 277 277 277 277 277 277 278 278 278 278 278 281 280 281 280 280 281 282 283
284 284 284 284 283 284 284 283 282 282 280 279 278 278 276 276 276 276 276 277 277 278 278 277 276 276 276 275 276 277 277 277 278 278 278 277 278 279 278 277 276 280 280
283 283 283 283 283 283 282 282 282 281 280 279 277 276 276 275 276 276 276 277 277 277 277 276 276 276 275 276 276 276 276 276 277 276 275 275 275 274 274 276 275 276 278
282 282 282 282 282 282 282 281 281 280 280 279 278 277 275 276 276 276 276 277 277 276 275 275 275 275 276 276 276 277 277 276 274 274 274 273 272 274 275 274 274 272 271
281 282 281 282 282 282 281 281 280 280 280 278 278 277 275 276 275 275 276 276 276 275 274 274 274 275 274 274 275 276 277 278 277 275 272 272 272 274 274 271 271 272 271
281 281 281 280 280 280 280 280 280 280 279 278 277 276 275 274 274 275 275 275 275 274 273 273 273 273 274 274 274 276 276 275 275 274 274 275 275 275 274 273 271 271 273
279 279 279 278 278 278 278 278 279 279 279 278 277 274 272 272 273 274 274 274 274 273 273 274 273 273 274 275 276 275 274 274 275 275 276 275 274 274 273 271 269 268 268
275 275 275 275 275 276 277 277 279 278 278 277 275 274 271 270 272 273 273 274 273 273 274 274 274 273 276 277 276 275 272 271 272 273 270 270 270 270 271 270 269 267 267
272 272 272 273 273 274 275 276 276 276 275 274 273 273 270 269 269 272 273 273 273 273 273 274 275 275 276 277 278 274 272 273 272 268 268 268 268 269 269 269 269 267 265
268 269 270 270 271 273 273 274 274 273 272 271 271 271 271 269 268 270 273 274 275 274 274 275 275 276 277 277 276 274 274 273 268 266 266 266 266 266 267 267 266 267 268
265 265 267 268 269 270 270 272 273 272 271 272 271 271 272 272 270 271 273 274 275 274 275 275 276 277 275 274 273 272 270 268 266 265 264 264 265 266 265 266 267 267 268
263 264 266 267 268 269 270 271 271 272 271 271 270 270 271 271 270 270 270 271 273 273 274 275 275 274 274 272 269 268 268 267 265 263 264 265 265 265 264 265 264 265 265
262 264 265 267 268 268 269 269 269 271 271 270 271 271 270 270 270 271 272 272 272 274 274 272 270 270 269 269 268 266 266 266 264 265 264 263 263 263 263 264 264 264 264
261 263 264 264 265 267 267 268 271 272 274 275 275 274 272 272 274 274 275 276 277 276 274 271 269 269 268 267 265 265 265 264 264 263 262 262 262 261 261 262 263 263 263
258 260 261 262 263 264 265 265 266 268 271 272 274 275 275 275 276 276 276 277 276 275 273 269 268 268 267 265 264 263 262 263 262 261 262 261 262 261 260 261 261 262 262
257 258 259 261 261 262 263 263 264 264 264 266 269 270 271 272 272 273 274 274 271 271 268 267 266 266 264 263 263 262 262 262 261 261 261 260 260 260 259 260 260 260 260
257 258 259 259 260 260 260 261 262 262 262 263 264 266 266 268 270 271 272 270 269 268 267 266 265 263 263 262 262 261 260 260 259 258 259 259 260 259 259 259 259 259 260
257 257 257 258 258 259 259 259 259 260 261 261 262 262 263 262 261 262 264 265 264 264 264 263 262 262 261 261 260 260 259 259 259 259 259 259 259 259 258 258 259 259 259
256 257 256 257 258 258 258 258 258 259 259 259 260 262 265 263 261 262 263 264 263 263 263 262 261 261 261 260 260 259 258 259 259 258 259 259 258 257 258 258 259 259 259
255 256 257 257 257 257 257 258 258 258 258 258 259 261 264 263 263 264 265 264 264 263 262 261 260 260 260 260 259 259 258 258 258 258 258 258 257 257 257 258 258 259 259
256 256 256 256 256 256 257 257 257 257 258 258 259 259 259 260 261 261 262 263 263 262 261 259 258 258 259 258 258 258 257 258 258 258 256 256 256 256 257 257 258 258 259
255 255 255 256 256 256 256 256 257 257 257 257 258 259 259 260 260 260 261 261 261 260 259 258 257 257 257 258 259 258 258 257 257 257 256 255 255 256 257 257 258 258 259
255 255 255 256 256 256 256 256 257 257 257 257 258 259 259 259 259 259 260 260 259 258 258 258 257 257 257 256 256 256 256 256 256 256 257 256 255 255 256 257 258 259 259
257 257 256 256 256 256 256 256 256 257 257 257 258 259 259 259 259 259 259 259 258 258 257 257 257 256 256 256 256 257 255 258 258 257 257 258 258 258 259 259 259 259 259
Wind_Speed
9 8 8 8 8 7 7 6 6 5 5 4 4 4 5 5 5 6 6 6 7 7 7 7 8 9 7 7 7 8 8 9 13 12 12 15 19 19 18 18 18 19 16
9 9 9 8 8 8 8 8 7 7 6 5 5 5 5 5 5 6 7 6 7 8 8 8 8 7 9 8 8 10 10 11 12 20 15 13 16 20 19 21 17 15 17
9 10 10 9 9 9 9 9 9 8 7 6 6 6 5 5 5 6 6 7 8 8 8 8 9 9 9 9 10 10 10 10 12 13 16 12 14 14 18 18 17 18 15
10 11 10 9 8 7 7 8 9 9 8 8 7 7 6 5 6 6 7 8 8 7 8 8 9 9 10 11 10 12 11 12 13 12 13 15 14 15 14 17 17 14 17
10 10 9 6 7 6 6 7 8 9 8 8 7 7 7 6 6 6 7 8 8 9 8 8 8 9 13 12 9 11 13 11 11 12 13 14 14 14 16 15 16 18 16
10 10 6 6 6 6 6 7 8 9 9 9 9 9 9 7 10 11 10 9 9 9 8 8 9 10 10 15 16 17 15 13 15 13 13 15 17 15 14 15 17 18 21
8 6 6 6 5 5 6 7 9 10 9 11 10 10 10 9 11 12 12 9 9 8 9 9 9 7 10 11 14 18 17 17 18 15 16 15 18 17 18 20 19 18 19
5 6 4 3 5 5 6 8 9 9 9 10 10 11 10 8 12 13 13 10 9 10 10 9 10 10 10 11 13 13 11 12 13 12 15 16 17 19 18 17 20 21 17
1 3 4 4 5 6 7 7 8 9 10 10 8 10 10 9 12 12 11 9 10 11 10 10 10 10 13 17 13 11 12 12 14 21 22 26 29 29 23 13 13 14 15
6 7 7 6 7 8 9 9 9 9 10 8 10 9 8 9 11 12 11 8 10 8 9 10 14 12 16 17 12 10 11 13 14 16 15 16 17 16 22 13 12 13 15
7 8 8 8 9 10 11 9 9 9 8 8 9 8 8 8 9 14 14 9 9 9 9 8 7 15 16 17 16 9 12 17 16 10 11 11 13 12 11 10 12 12 14
9 9 10 10 9 9 11 10 9 8 8 8 7 7 7 8 12 14 15 16 15 11 10 8 8 17 19 16 14 17 21 17 8 9 10 10 11 12 13 13 16 15 14
9 9 9 10 10 9 10 10 8 7 7 7 7 7 7 6 6 14 16 17 18 12 9 13 20 20 15 13 15 18 13 7 8 9 10 10 10 12 16 15 15 17 18
9 9 9 8 9 8 7 6 7 7 7 7 7 8 7 7 6 6 7 8 13 13 14 11 11 13 14 13 8 9 6 7 8 9 10 10 11 11 12 11 14 14 15
9 8 9 8 9 9 7 6 6 8 8 8 8 8 8 8 8 11 10 8 8 11 12 5 5 7 8 8 8 7 7 7 8 8 10 11 11 11 11 11 12 13 14
10 8 8 9 8 8 8 9 11 15 18 20 20 16 9 19 19 18 20 20 21 20 9 7 7 7 8 8 9 8 7 8 7 8 9 10 11 11 12 12 11 12 14
9 10 9 9 9 9 9 9 10 9 15 17 19 20 21 21 23 23 24 22 21 18 10 6 8 8 9 8 8 9 9 8 8 8 9 10 10 11 13 12 12 12 14
9 11 8 9 9 9 9 10 9 10 11 10 12 15 17 20 22 22 21 18 11 7 5 8 9 8 8 8 8 8 9 8 8 8 8 10 10 10 11 11 12 14 14
10 8 9 9 9 10 10 10 10 11 10 11 10 12 12 20 22 23 22 11 10 9 8 9 8 7 8 8 8 7 9 8 8 8 8 9 9 10 10 11 12 17 18
10 12 10 10 9 9 9 10 10 10 11 10 10 10 9 8 8 9 9 9 9 8 8 8 7 7 7 7 7 7 8 8 8 8 8 9 9 9 10 11 11 13 13
9 9 10 9 9 10 9 10 10 10 10 10 11 10 18 11 10 9 9 9 9 8 8 8 7 7 7 7 7 7 8 9 8 7 7 9 9 9 10 11 11 12 13
8 9 9 10 10 10 10 10 10 10 11 11 11 11 21 10 10 10 9 8 8 8 6 7 7 7 7 7 7 8 8 9 8 7 8 8 8 9 9 10 11 11 12
9 10 10 9 10 11 10 10 10 11 11 11 11 10 9 9 9 9 9 8 8 8 6 6 7 7 7 6 7 7 9 9 7 6 8 9 8 9 9 10 11 12 12
10 11 11 10 10 10 10 10 11 12 12 11 11 10 10 9 10 10 9 8 8 8 7 6 6 9 8 7 7 8 8 8 7 7 9 9 9 10 9 10 10 13 12
10 10 10 10 10 10 11 11 11 11 11 10 10 10 10 10 9 10 9 8 8 8 8 7 6 8 11 10 11 12 11 11 10 10 7 10 11 12 10 9 11 11 13
10 11 10 10 10 10 10 10 11 11 10 10 10 10 10 9 9 9 8 8 8 8 8 7 7 10 11 10 12 12 10 12 11 11 10 9 9 8 8 10 13 10 12
Wind_Direction
209 220 228 231 227 226 229 231 230 230 234 252 274 293 307 316 327 325 327 325 327 327 330 329 327 331 329 322 325 321 315 310 302 306 311 318 317 318 318 320 315 316 313
208 215 226 234 229 226 229 226 218 225 224 239 252 268 285 299 313 318 318 317 319 321 324 323 325 328 325 326 326 318 311 315 310 309 313 315 316 323 318 317 316 314 312
206 212 219 223 224 228 227 223 214 213 219 225 233 253 268 280 296 303 296 305 307 309 314 317 322 323 321 326 319 314 318 316 313 307 309 316 318 320 319 316 318 314 312
204 210 215 218 225 229 227 220 216 210 214 217 225 236 248 262 277 285 285 295 296 298 301 307 311 312 317 319 312 316 319 316 314 309 314 312 315 320 317 318 318 316 315
205 210 214 223 232 233 229 224 221 218 221 221 222 229 239 244 254 261 275 284 287 291 293 299 297 311 299 295 306 312 311 313 310 316 308 309 314 323 322 320 308 313 312
204 211 207 221 229 234 233 228 224 226 227 223 227 230 232 238 250 261 275 281 284 285 290 298 294 293 293 302 300 298 300 302 315 311 310 308 310 318 312 314 313 314 312
207 203 215 228 243 249 246 238 234 233 231 230 231 230 235 240 249 261 269 274 275 273 277 285 288 290 293 296 300 297 291 306 309 310 303 304 308 312 314 311 306 299 298
196 215 233 255 261 269 252 248 250 241 232 228 227 226 233 238 245 257 268 268 264 266 267 269 274 284 283 293 286 289 306 305 310 307 299 300 307 311 303 305 300 295 288
26 331 340 328 305 294 281 269 260 247 238 231 229 223 223 238 241 255 265 268 263 263 262 262 263 272 278 287 292 305 307 306 305 301 303 310 308 308 308 304 300 306 300
7 335 321 317 305 296 289 278 270 247 246 234 231 226 221 237 245 252 257 260 264 267 268 264 265 258 272 293 289 309 311 309 305 314 313 310 311 306 310 301 302 299 299
337 323 319 328 319 300 289 279 270 260 249 239 235 228 225 225 246 254 256 255 260 269 272 272 267 276 284 287 292 317 303 305 316 313 304 307 309 309 308 303 298 290 287
338 329 334 328 313 302 292 284 268 253 246 247 242 246 238 235 229 249 252 253 259 264 271 274 276 282 281 293 302 301 301 312 303 300 300 302 307 309 310 305 295 281 268
335 331 325 316 307 303 296 288 278 252 249 249 244 249 255 243 242 251 257 259 265 269 264 264 270 284 298 296 289 295 308 298 298 299 300 298 302 305 302 299 298 293 286
331 325 317 309 312 306 302 292 280 266 254 250 251 253 254 250 250 250 245 252 262 262 265 269 268 271 283 283 286 288 289 293 298 296 299 302 301 304 304 308 307 311 304
327 317 314 314 311 309 301 290 277 270 264 272 267 268 267 261 255 250 245 253 247 246 255 247 237 259 274 284 287 286 286 289 293 297 300 301 300 303 307 312 307 305 301
326 324 320 313 312 308 307 303 284 280 277 266 260 252 244 248 263 263 261 261 265 271 267 242 257 272 281 288 289 289 287 285 288 299 299 298 302 304 309 311 305 305 304
317 310 312 306 310 310 308 304 304 299 288 283 276 272 273 278 280 277 273 265 271 274 265 256 268 274 282 283 283 285 287 290 299 287 295 299 302 304 308 310 308 307 305
309 305 301 305 304 303 301 300 297 295 299 292 282 277 277 278 274 272 273 276 268 249 247 259 264 268 270 271 272 277 283 287 287 292 296 297 298 303 306 307 308 308 308
312 309 307 300 295 298 296 294 292 290 285 285 292 283 285 284 281 272 266 259 261 259 257 260 253 258 263 267 268 272 274 278 288 293 292 292 296 304 300 301 301 305 307
306 298 295 298 300 301 299 299 297 292 288 285 284 286 290 280 270 270 257 253 249 246 250 252 252 256 256 259 265 268 273 276 280 281 289 293 295 299 299 301 302 305 306
300 299 301 291 297 300 300 296 295 293 287 284 283 283 274 261 258 258 256 255 250 245 245 249 251 250 255 258 262 265 267 273 276 281 288 291 296 298 297 298 298 300 302
295 294 295 297 295 292 291 293 291 286 282 282 283 282 285 282 274 273 254 252 256 256 250 256 253 249 252 252 259 264 268 270 275 282 288 288 292 295 296 299 300 304 306
293 295 294 294 292 293 288 286 286 283 283 281 283 283 278 272 268 269 270 266 260 253 246 241 247 253 254 247 250 253 261 266 274 285 286 288 289 293 298 299 302 306 309
289 291 292 290 290 291 288 286 285 281 281 282 283 281 279 275 272 272 271 267 262 259 252 239 237 247 264 256 260 254 254 259 268 271 271 274 282 288 291 294 298 305 306
284 284 284 285 285 285 288 289 287 285 283 283 283 281 280 278 276 274 273 270 265 261 260 251 243 252 258 258 255 258 265 264 259 265 269 264 266 277 280 285 298 307 309
288 287 286 287 286 285 285 287 287 286 284 283 282 281 280 279 277 276 274 269 265 260 259 261 257 254 263 266 262 261 255 259 262 253 246 253 262 273 283 295 303 308 309